owner,sensor,date,latitude,longitude,sea_surface_height_above_sea_level,qcFlag 
TCOON,ioos:station:TCOON:031:1,2016-12-01T00:18:00Z,28.4073,-96.7122,0.525,1111122 
TCOON,ioos:station:TCOON:031:1,2016-12-01T01:18:00Z,28.4073,-96.7122,0.522,1111122 
TCOON,ioos:station:TCOON:031:1,2016-12-01T02:18:00Z,28.4073,-96.7122,0.525,1111122 
TCOON,ioos:station:TCOON:031:1,2016-12-01T03:18:00Z,28.4073,-96.7122,0.522,1111122 
TCOON,ioos:station:TCOON:031:1,2016-12-01T04:18:00Z,28.4073,-96.7122,0.525,1111122 
TCOON,ioos:station:TCOON:031:1,2016-12-01T05:18:00Z,28.4073,-96.7122,0.541,1111122 
TCOON,ioos:station:TCOON:031:1,2016-12-01T06:18:00Z,28.4073,-96.7122,0.537,1111122 
TCOON,ioos:station:TCOON:031:1,2016-12-01T07:18:00Z,28.4073,-96.7122,0.542,1111122 
TCOON,ioos:station:TCOON:031:1,2016-12-01T08:18:00Z,28.4073,-96.7122,0.551,1111122 
TCOON,ioos:station:TCOON:031:1,2016-12-01T09:18:00Z,28.4073,-96.7122,0.567,1111122 
TCOON,ioos:station:TCOON:031:1,2016-12-01T10:18:00Z,28.4073,-96.7122,0.565,1111122 
TCOON,ioos:station:TCOON:031:1,2016-12-01T11:18:00Z,28.4073,-96.7122,0.573,1111122 
TCOON,ioos:station:TCOON:031:1,2016-12-01T12:18:00Z,28.4073,-96.7122,0.576,1111122 
TCOON,ioos:station:TCOON:031:1,2016-12-01T13:18:00Z,28.4073,-96.7122,0.577,1111122 
TCOON,ioos:station:TCOON:031:1,2016-12-01T14:18:00Z,28.4073,-96.7122,0.596,1111122 
TCOON,ioos:station:TCOON:031:1,2016-12-01T15:18:00Z,28.4073,-96.7122,0.573,1111122 
TCOON,ioos:station:TCOON:031:1,2016-12-01T16:18:00Z,28.4073,-96.7122,0.592,1111122 
TCOON,ioos:station:TCOON:031:1,2016-12-01T17:36:00Z,28.4073,-96.7122,0.591,1111122 
TCOON,ioos:station:TCOON:031:1,2016-12-01T18:18:00Z,28.4073,-96.7122,0.607,1111122 
TCOON,ioos:station:TCOON:031:1,2016-12-01T19:18:00Z,28.4073,-96.7122,0.588,1111122 
TCOON,ioos:station:TCOON:031:1,2016-12-01T20:18:00Z,28.4073,-96.7122,0.582,1111122 
TCOON,ioos:station:TCOON:031:1,2016-12-01T21:18:00Z,28.4073,-96.7122,0.566,1111122 
TCOON,ioos:station:TCOON:031:1,2016-12-01T22:18:00Z,28.4073,-96.7122,0.568,1111122 
TCOON,ioos:station:TCOON:031:1,2016-12-01T23:18:00Z,28.4073,-96.7122,0.568,1111122 
TCOON,ioos:station:TCOON:031:1,2016-12-02T00:18:00Z,28.4073,-96.7122,0.58,1111122 
TCOON,ioos:station:TCOON:031:1,2016-12-02T01:18:00Z,28.4073,-96.7122,0.584,1111122 
TCOON,ioos:station:TCOON:031:1,2016-12-02T02:18:00Z,28.4073,-96.7122,0.589,1111122 
TCOON,ioos:station:TCOON:031:1,2016-12-02T03:18:00Z,28.4073,-96.7122,0.581,1111122 
TCOON,ioos:station:TCOON:031:1,2016-12-02T04:18:00Z,28.4073,-96.7122,0.595,1111122 
TCOON,ioos:station:TCOON:031:1,2016-12-02T05:18:00Z,28.4073,-96.7122,0.621,1111122 
TCOON,ioos:station:TCOON:031:1,2016-12-02T06:18:00Z,28.4073,-96.7122,0.626,1111122 
TCOON,ioos:station:TCOON:031:1,2016-12-02T07:18:00Z,28.4073,-96.7122,0.62,1111122 
TCOON,ioos:station:TCOON:031:1,2016-12-02T08:18:00Z,28.4073,-96.7122,0.609,1111122 
TCOON,ioos:station:TCOON:031:1,2016-12-02T09:18:00Z,28.4073,-96.7122,0.621,1111122 
TCOON,ioos:station:TCOON:031:1,2016-12-02T10:18:00Z,28.4073,-96.7122,0.615,1111122 
TCOON,ioos:station:TCOON:031:1,2016-12-02T11:18:00Z,28.4073,-96.7122,0.632,1111122 
TCOON,ioos:station:TCOON:031:1,2016-12-02T12:18:00Z,28.4073,-96.7122,0.644,1111122 
TCOON,ioos:station:TCOON:031:1,2016-12-02T13:18:00Z,28.4073,-96.7122,0.641,1111122 
TCOON,ioos:station:TCOON:031:1,2016-12-02T14:18:00Z,28.4073,-96.7122,0.65,1111122 
TCOON,ioos:station:TCOON:031:1,2016-12-02T15:18:00Z,28.4073,-96.7122,0.645,1111122 
TCOON,ioos:station:TCOON:031:1,2016-12-02T16:18:00Z,28.4073,-96.7122,0.665,1111122 
TCOON,ioos:station:TCOON:031:1,2016-12-02T17:18:00Z,28.4073,-96.7122,0.639,1111122 
TCOON,ioos:station:TCOON:031:1,2016-12-02T18:18:00Z,28.4073,-96.7122,0.647,1111122 
TCOON,ioos:station:TCOON:031:1,2016-12-02T19:18:00Z,28.4073,-96.7122,0.652,1111122 
TCOON,ioos:station:TCOON:031:1,2016-12-02T20:18:00Z,28.4073,-96.7122,0.644,1111122 
TCOON,ioos:station:TCOON:031:1,2016-12-02T21:18:00Z,28.4073,-96.7122,0.657,1111122 
TCOON,ioos:station:TCOON:031:1,2016-12-02T22:18:00Z,28.4073,-96.7122,0.625,1111122 
TCOON,ioos:station:TCOON:031:1,2016-12-02T23:18:00Z,28.4073,-96.7122,0.621,1111122 
TCOON,ioos:station:TCOON:031:1,2016-12-03T00:18:00Z,28.4073,-96.7122,0.654,1111122 
TCOON,ioos:station:TCOON:031:1,2016-12-03T01:18:00Z,28.4073,-96.7122,0.618,1111122 
TCOON,ioos:station:TCOON:031:1,2016-12-03T02:18:00Z,28.4073,-96.7122,0.666,1111122 
TCOON,ioos:station:TCOON:031:1,2016-12-03T03:18:00Z,28.4073,-96.7122,0.693,1111122 
TCOON,ioos:station:TCOON:031:1,2016-12-03T04:18:00Z,28.4073,-96.7122,0.689,1111122 
TCOON,ioos:station:TCOON:031:1,2016-12-03T05:18:00Z,28.4073,-96.7122,0.718,1111122 
TCOON,ioos:station:TCOON:031:1,2016-12-03T06:18:00Z,28.4073,-96.7122,0.737,1111122 
TCOON,ioos:station:TCOON:031:1,2016-12-03T07:18:00Z,28.4073,-96.7122,0.701,1111122 
TCOON,ioos:station:TCOON:031:1,2016-12-03T08:18:00Z,28.4073,-96.7122,0.711,1111122 
TCOON,ioos:station:TCOON:031:1,2016-12-03T09:18:00Z,28.4073,-96.7122,0.736,1111122 
TCOON,ioos:station:TCOON:031:1,2016-12-03T10:18:00Z,28.4073,-96.7122,0.755,1111122 
TCOON,ioos:station:TCOON:031:1,2016-12-03T11:18:00Z,28.4073,-96.7122,0.77,1111122 
TCOON,ioos:station:TCOON:031:1,2016-12-03T12:18:00Z,28.4073,-96.7122,0.752,1111122 
TCOON,ioos:station:TCOON:031:1,2016-12-03T13:18:00Z,28.4073,-96.7122,0.761,1111122 
TCOON,ioos:station:TCOON:031:1,2016-12-03T14:18:00Z,28.4073,-96.7122,0.753,1111122 
TCOON,ioos:station:TCOON:031:1,2016-12-03T15:18:00Z,28.4073,-96.7122,0.72,1111122 
TCOON,ioos:station:TCOON:031:1,2016-12-03T16:18:00Z,28.4073,-96.7122,0.707,1111122 
TCOON,ioos:station:TCOON:031:1,2016-12-03T17:18:00Z,28.4073,-96.7122,0.746,1111122 
TCOON,ioos:station:TCOON:031:1,2016-12-03T18:18:00Z,28.4073,-96.7122,0.759,1111122 
TCOON,ioos:station:TCOON:031:1,2016-12-03T19:18:00Z,28.4073,-96.7122,0.744,1111122 
TCOON,ioos:station:TCOON:031:1,2016-12-03T20:18:00Z,28.4073,-96.7122,0.721,1111122 
TCOON,ioos:station:TCOON:031:1,2016-12-03T21:18:00Z,28.4073,-96.7122,0.727,1111122 
TCOON,ioos:station:TCOON:031:1,2016-12-03T22:18:00Z,28.4073,-96.7122,0.742,1111122 
TCOON,ioos:station:TCOON:031:1,2016-12-03T23:18:00Z,28.4073,-96.7122,0.711,1111122 
TCOON,ioos:station:TCOON:031:1,2016-12-04T00:18:00Z,28.4073,-96.7122,0.711,1111122 
TCOON,ioos:station:TCOON:031:1,2016-12-04T01:18:00Z,28.4073,-96.7122,0.689,1111122 
TCOON,ioos:station:TCOON:031:1,2016-12-04T02:18:00Z,28.4073,-96.7122,0.699,1111122 
TCOON,ioos:station:TCOON:031:1,2016-12-04T03:18:00Z,28.4073,-96.7122,0.789,1111122 
TCOON,ioos:station:TCOON:031:1,2016-12-04T04:18:00Z,28.4073,-96.7122,0.797,1111122 
TCOON,ioos:station:TCOON:031:1,2016-12-04T05:18:00Z,28.4073,-96.7122,0.832,1111122 
TCOON,ioos:station:TCOON:031:1,2016-12-04T06:18:00Z,28.4073,-96.7122,0.727,1111122 
TCOON,ioos:station:TCOON:031:1,2016-12-04T07:18:00Z,28.4073,-96.7122,0.67,1111122 
TCOON,ioos:station:TCOON:031:1,2016-12-04T08:18:00Z,28.4073,-96.7122,0.801,1111122 
TCOON,ioos:station:TCOON:031:1,2016-12-04T09:18:00Z,28.4073,-96.7122,0.835,1111122 
TCOON,ioos:station:TCOON:031:1,2016-12-04T10:18:00Z,28.4073,-96.7122,0.716,1111122 
TCOON,ioos:station:TCOON:031:1,2016-12-04T11:18:00Z,28.4073,-96.7122,0.676,1111122 
TCOON,ioos:station:TCOON:031:1,2016-12-04T12:18:00Z,28.4073,-96.7122,0.759,1111122 
TCOON,ioos:station:TCOON:031:1,2016-12-04T13:18:00Z,28.4073,-96.7122,0.777,1111122 
TCOON,ioos:station:TCOON:031:1,2016-12-04T14:18:00Z,28.4073,-96.7122,0.792,1111122 
TCOON,ioos:station:TCOON:031:1,2016-12-04T15:18:00Z,28.4073,-96.7122,0.704,1111122 
TCOON,ioos:station:TCOON:031:1,2016-12-04T16:18:00Z,28.4073,-96.7122,0.695,1111122 
TCOON,ioos:station:TCOON:031:1,2016-12-04T17:18:00Z,28.4073,-96.7122,0.775,1111122 
TCOON,ioos:station:TCOON:031:1,2016-12-04T18:18:00Z,28.4073,-96.7122,0.743,1111122 
TCOON,ioos:station:TCOON:031:1,2016-12-04T19:18:00Z,28.4073,-96.7122,0.781,1111122 
TCOON,ioos:station:TCOON:031:1,2016-12-04T20:18:00Z,28.4073,-96.7122,0.685,1111122 
TCOON,ioos:station:TCOON:031:1,2016-12-04T21:18:00Z,28.4073,-96.7122,0.731,1111122 
TCOON,ioos:station:TCOON:031:1,2016-12-04T22:18:00Z,28.4073,-96.7122,0.732,1111122 
TCOON,ioos:station:TCOON:031:1,2016-12-04T23:18:00Z,28.4073,-96.7122,0.726,1111122 
TCOON,ioos:station:TCOON:031:1,2016-12-05T00:18:00Z,28.4073,-96.7122,0.702,1111122 
TCOON,ioos:station:TCOON:031:1,2016-12-05T01:18:00Z,28.4073,-96.7122,0.685,1111122 
TCOON,ioos:station:TCOON:031:1,2016-12-05T02:18:00Z,28.4073,-96.7122,0.676,1111122 
TCOON,ioos:station:TCOON:031:1,2016-12-05T03:18:00Z,28.4073,-96.7122,0.673,1111122 
TCOON,ioos:station:TCOON:031:1,2016-12-05T04:18:00Z,28.4073,-96.7122,0.714,1111122 
TCOON,ioos:station:TCOON:031:1,2016-12-05T05:18:00Z,28.4073,-96.7122,0.639,1111122 
TCOON,ioos:station:TCOON:031:1,2016-12-05T06:18:00Z,28.4073,-96.7122,0.67,1111122 
TCOON,ioos:station:TCOON:031:1,2016-12-05T07:18:00Z,28.4073,-96.7122,0.688,1111122 
TCOON,ioos:station:TCOON:031:1,2016-12-05T08:18:00Z,28.4073,-96.7122,0.679,1111122 
TCOON,ioos:station:TCOON:031:1,2016-12-05T09:18:00Z,28.4073,-96.7122,0.657,1111122 
TCOON,ioos:station:TCOON:031:1,2016-12-05T10:18:00Z,28.4073,-96.7122,0.71,1111122 
TCOON,ioos:station:TCOON:031:1,2016-12-05T11:18:00Z,28.4073,-96.7122,0.796,1111122 
TCOON,ioos:station:TCOON:031:1,2016-12-05T12:18:00Z,28.4073,-96.7122,0.784,1111122 
TCOON,ioos:station:TCOON:031:1,2016-12-05T13:18:00Z,28.4073,-96.7122,0.784,1111122 
TCOON,ioos:station:TCOON:031:1,2016-12-05T14:18:00Z,28.4073,-96.7122,0.766,1111122 
TCOON,ioos:station:TCOON:031:1,2016-12-05T15:18:00Z,28.4073,-96.7122,0.735,1111122 
TCOON,ioos:station:TCOON:031:1,2016-12-05T21:42:00Z,28.4073,-96.7122,0.716,1111122 
TCOON,ioos:station:TCOON:031:1,2016-12-05T22:18:00Z,28.4073,-96.7122,0.695,1111122 
TCOON,ioos:station:TCOON:031:1,2016-12-05T23:18:00Z,28.4073,-96.7122,0.677,1111122 
TCOON,ioos:station:TCOON:031:1,2016-12-06T00:18:00Z,28.4073,-96.7122,0.677,1111122 
TCOON,ioos:station:TCOON:031:1,2016-12-06T01:18:00Z,28.4073,-96.7122,0.68,1111122 
TCOON,ioos:station:TCOON:031:1,2016-12-06T02:18:00Z,28.4073,-96.7122,0.677,1111122 
TCOON,ioos:station:TCOON:031:1,2016-12-06T03:18:00Z,28.4073,-96.7122,0.684,1111122 
TCOON,ioos:station:TCOON:031:1,2016-12-06T04:18:00Z,28.4073,-96.7122,0.69,1111122 
TCOON,ioos:station:TCOON:031:1,2016-12-06T05:18:00Z,28.4073,-96.7122,0.691,1111122 
TCOON,ioos:station:TCOON:031:1,2016-12-06T06:18:00Z,28.4073,-96.7122,0.674,1111122 
TCOON,ioos:station:TCOON:031:1,2016-12-06T07:18:00Z,28.4073,-96.7122,0.681,1111122 
TCOON,ioos:station:TCOON:031:1,2016-12-06T08:18:00Z,28.4073,-96.7122,0.676,1111122 
TCOON,ioos:station:TCOON:031:1,2016-12-06T09:18:00Z,28.4073,-96.7122,0.691,1111122 
TCOON,ioos:station:TCOON:031:1,2016-12-06T10:18:00Z,28.4073,-96.7122,0.687,1111122 
TCOON,ioos:station:TCOON:031:1,2016-12-06T11:18:00Z,28.4073,-96.7122,0.687,1111122 
TCOON,ioos:station:TCOON:031:1,2016-12-06T12:18:00Z,28.4073,-96.7122,0.672,1111122 
TCOON,ioos:station:TCOON:031:1,2016-12-06T13:18:00Z,28.4073,-96.7122,0.682,1111122 
TCOON,ioos:station:TCOON:031:1,2016-12-06T14:18:00Z,28.4073,-96.7122,0.695,1111122 
TCOON,ioos:station:TCOON:031:1,2016-12-06T15:18:00Z,28.4073,-96.7122,0.684,1111122 
TCOON,ioos:station:TCOON:031:1,2016-12-06T16:18:00Z,28.4073,-96.7122,0.679,1111122 
TCOON,ioos:station:TCOON:031:1,2016-12-06T17:18:00Z,28.4073,-96.7122,0.676,1111122 
TCOON,ioos:station:TCOON:031:1,2016-12-06T18:18:00Z,28.4073,-96.7122,0.657,1111122 
TCOON,ioos:station:TCOON:031:1,2016-12-06T19:18:00Z,28.4073,-96.7122,0.641,1111122 
TCOON,ioos:station:TCOON:031:1,2016-12-06T20:18:00Z,28.4073,-96.7122,0.627,1111122 
TCOON,ioos:station:TCOON:031:1,2016-12-06T21:18:00Z,28.4073,-96.7122,0.624,1111122 
TCOON,ioos:station:TCOON:031:1,2016-12-06T22:18:00Z,28.4073,-96.7122,0.618,1111122 
TCOON,ioos:station:TCOON:031:1,2016-12-06T23:18:00Z,28.4073,-96.7122,0.592,1111122 
TCOON,ioos:station:TCOON:031:1,2016-12-07T00:18:00Z,28.4073,-96.7122,0.555,1111122 
TCOON,ioos:station:TCOON:031:1,2016-12-07T01:18:00Z,28.4073,-96.7122,0.544,1111122 
TCOON,ioos:station:TCOON:031:1,2016-12-07T02:18:00Z,28.4073,-96.7122,0.475,1111122 
TCOON,ioos:station:TCOON:031:1,2016-12-07T03:18:00Z,28.4073,-96.7122,0.436,1111122 
TCOON,ioos:station:TCOON:031:1,2016-12-07T04:18:00Z,28.4073,-96.7122,0.489,1111122 
TCOON,ioos:station:TCOON:031:1,2016-12-07T05:18:00Z,28.4073,-96.7122,0.5,1111122 
TCOON,ioos:station:TCOON:031:1,2016-12-07T06:18:00Z,28.4073,-96.7122,0.524,1111122 
TCOON,ioos:station:TCOON:031:1,2016-12-07T07:18:00Z,28.4073,-96.7122,0.498,1111122 
TCOON,ioos:station:TCOON:031:1,2016-12-07T08:18:00Z,28.4073,-96.7122,0.501,1111122 
TCOON,ioos:station:TCOON:031:1,2016-12-07T09:18:00Z,28.4073,-96.7122,0.516,1111122 
TCOON,ioos:station:TCOON:031:1,2016-12-07T10:18:00Z,28.4073,-96.7122,0.495,1111122 
TCOON,ioos:station:TCOON:031:1,2016-12-07T11:18:00Z,28.4073,-96.7122,0.498,1111122 
TCOON,ioos:station:TCOON:031:1,2016-12-07T12:18:00Z,28.4073,-96.7122,0.488,1111122 
TCOON,ioos:station:TCOON:031:1,2016-12-07T13:18:00Z,28.4073,-96.7122,0.477,1111122 
TCOON,ioos:station:TCOON:031:1,2016-12-07T14:18:00Z,28.4073,-96.7122,0.457,1111122 
TCOON,ioos:station:TCOON:031:1,2016-12-07T15:18:00Z,28.4073,-96.7122,0.477,1111122 
TCOON,ioos:station:TCOON:031:1,2016-12-07T16:18:00Z,28.4073,-96.7122,0.478,1111122 
TCOON,ioos:station:TCOON:031:1,2016-12-07T17:18:00Z,28.4073,-96.7122,0.494,1111122 
TCOON,ioos:station:TCOON:031:1,2016-12-07T18:18:00Z,28.4073,-96.7122,0.489,1111122 
TCOON,ioos:station:TCOON:031:1,2016-12-07T19:18:00Z,28.4073,-96.7122,0.501,1111122 
TCOON,ioos:station:TCOON:031:1,2016-12-07T20:18:00Z,28.4073,-96.7122,0.5,1111122 
TCOON,ioos:station:TCOON:031:1,2016-12-07T21:18:00Z,28.4073,-96.7122,0.499,1111122 
TCOON,ioos:station:TCOON:031:1,2016-12-07T22:18:00Z,28.4073,-96.7122,0.483,1111122 
TCOON,ioos:station:TCOON:031:1,2016-12-07T23:18:00Z,28.4073,-96.7122,0.493,1111122 
TCOON,ioos:station:TCOON:031:1,2016-12-08T00:18:00Z,28.4073,-96.7122,0.484,1111122 
TCOON,ioos:station:TCOON:031:1,2016-12-08T01:18:00Z,28.4073,-96.7122,0.475,1111122 
TCOON,ioos:station:TCOON:031:1,2016-12-08T02:18:00Z,28.4073,-96.7122,0.478,1111122 
TCOON,ioos:station:TCOON:031:1,2016-12-08T03:54:00Z,28.4073,-96.7122,0.466,1111122 
TCOON,ioos:station:TCOON:031:1,2016-12-08T04:30:00Z,28.4073,-96.7122,0.463,1111122 
TCOON,ioos:station:TCOON:031:1,2016-12-08T05:18:00Z,28.4073,-96.7122,0.462,1111122 
TCOON,ioos:station:TCOON:031:1,2016-12-08T06:24:00Z,28.4073,-96.7122,0.405,1111122 
TCOON,ioos:station:TCOON:031:1,2016-12-08T07:18:00Z,28.4073,-96.7122,0.376,1111122 
TCOON,ioos:station:TCOON:031:1,2016-12-08T08:18:00Z,28.4073,-96.7122,0.355,1111122 
TCOON,ioos:station:TCOON:031:1,2016-12-08T09:18:00Z,28.4073,-96.7122,0.369,1111122 
TCOON,ioos:station:TCOON:031:1,2016-12-08T10:18:00Z,28.4073,-96.7122,0.356,1111122 
TCOON,ioos:station:TCOON:031:1,2016-12-08T11:18:00Z,28.4073,-96.7122,0.396,1111122 
TCOON,ioos:station:TCOON:031:1,2016-12-08T12:18:00Z,28.4073,-96.7122,0.32,1111122 
TCOON,ioos:station:TCOON:031:1,2016-12-08T13:18:00Z,28.4073,-96.7122,0.363,1111122 
TCOON,ioos:station:TCOON:031:1,2016-12-08T14:18:00Z,28.4073,-96.7122,0.346,1111122 
TCOON,ioos:station:TCOON:031:1,2016-12-08T15:18:00Z,28.4073,-96.7122,0.319,1111122 
TCOON,ioos:station:TCOON:031:1,2016-12-08T16:18:00Z,28.4073,-96.7122,0.333,1111122 
TCOON,ioos:station:TCOON:031:1,2016-12-08T17:18:00Z,28.4073,-96.7122,0.229,1111122 
TCOON,ioos:station:TCOON:031:1,2016-12-08T18:18:00Z,28.4073,-96.7122,0.28,1111122 
TCOON,ioos:station:TCOON:031:1,2016-12-08T19:18:00Z,28.4073,-96.7122,0.306,1111122 
TCOON,ioos:station:TCOON:031:1,2016-12-08T20:18:00Z,28.4073,-96.7122,0.362,1111122 
TCOON,ioos:station:TCOON:031:1,2016-12-08T21:18:00Z,28.4073,-96.7122,0.455,1111122 
TCOON,ioos:station:TCOON:031:1,2016-12-08T22:18:00Z,28.4073,-96.7122,0.444,1111122 
TCOON,ioos:station:TCOON:031:1,2016-12-08T23:18:00Z,28.4073,-96.7122,0.425,1111122 
TCOON,ioos:station:TCOON:031:1,2016-12-09T00:18:00Z,28.4073,-96.7122,0.463,1111122 
TCOON,ioos:station:TCOON:031:1,2016-12-09T01:18:00Z,28.4073,-96.7122,0.433,1111122 
TCOON,ioos:station:TCOON:031:1,2016-12-09T02:18:00Z,28.4073,-96.7122,0.407,1111122 
TCOON,ioos:station:TCOON:031:1,2016-12-09T03:18:00Z,28.4073,-96.7122,0.381,1111122 
TCOON,ioos:station:TCOON:031:1,2016-12-09T04:24:00Z,28.4073,-96.7122,0.434,1111122 
TCOON,ioos:station:TCOON:031:1,2016-12-09T05:18:00Z,28.4073,-96.7122,0.432,1111122 
TCOON,ioos:station:TCOON:031:1,2016-12-09T06:18:00Z,28.4073,-96.7122,0.474,1111122 
TCOON,ioos:station:TCOON:031:1,2016-12-09T07:18:00Z,28.4073,-96.7122,0.475,1111122 
TCOON,ioos:station:TCOON:031:1,2016-12-09T09:18:00Z,28.4073,-96.7122,0.463,1111122 
TCOON,ioos:station:TCOON:031:1,2016-12-09T10:18:00Z,28.4073,-96.7122,0.482,1111122 
TCOON,ioos:station:TCOON:031:1,2016-12-09T11:18:00Z,28.4073,-96.7122,0.5,1111122 
TCOON,ioos:station:TCOON:031:1,2016-12-09T12:18:00Z,28.4073,-96.7122,0.508,1111122 
TCOON,ioos:station:TCOON:031:1,2016-12-09T13:18:00Z,28.4073,-96.7122,0.508,1111122 
TCOON,ioos:station:TCOON:031:1,2016-12-09T14:18:00Z,28.4073,-96.7122,0.553,1111122 
TCOON,ioos:station:TCOON:031:1,2016-12-09T15:18:00Z,28.4073,-96.7122,0.537,1111122 
TCOON,ioos:station:TCOON:031:1,2016-12-09T16:24:00Z,28.4073,-96.7122,0.561,1111122 
TCOON,ioos:station:TCOON:031:1,2016-12-09T17:18:00Z,28.4073,-96.7122,0.577,1111122 
TCOON,ioos:station:TCOON:031:1,2016-12-09T18:18:00Z,28.4073,-96.7122,0.578,1111122 
TCOON,ioos:station:TCOON:031:1,2016-12-09T19:18:00Z,28.4073,-96.7122,0.583,1111122 
TCOON,ioos:station:TCOON:031:1,2016-12-09T20:18:00Z,28.4073,-96.7122,0.577,1111122 
TCOON,ioos:station:TCOON:031:1,2016-12-09T21:18:00Z,28.4073,-96.7122,0.57,1111122 
TCOON,ioos:station:TCOON:031:1,2016-12-09T22:18:00Z,28.4073,-96.7122,0.565,1111122 
TCOON,ioos:station:TCOON:031:1,2016-12-09T23:18:00Z,28.4073,-96.7122,0.571,1111122 
TCOON,ioos:station:TCOON:031:1,2016-12-10T00:18:00Z,28.4073,-96.7122,0.58,1111122 
TCOON,ioos:station:TCOON:031:1,2016-12-10T01:18:00Z,28.4073,-96.7122,0.593,1111122 
TCOON,ioos:station:TCOON:031:1,2016-12-10T02:18:00Z,28.4073,-96.7122,0.587,1111122 
TCOON,ioos:station:TCOON:031:1,2016-12-10T03:18:00Z,28.4073,-96.7122,0.594,1111122 
TCOON,ioos:station:TCOON:031:1,2016-12-10T04:24:00Z,28.4073,-96.7122,0.591,1111122 
TCOON,ioos:station:TCOON:031:1,2016-12-10T05:18:00Z,28.4073,-96.7122,0.593,1111122 
TCOON,ioos:station:TCOON:031:1,2016-12-10T06:18:00Z,28.4073,-96.7122,0.588,1111122 
TCOON,ioos:station:TCOON:031:1,2016-12-10T07:18:00Z,28.4073,-96.7122,0.612,1111122 
TCOON,ioos:station:TCOON:031:1,2016-12-10T08:18:00Z,28.4073,-96.7122,0.631,1111122 
TCOON,ioos:station:TCOON:031:1,2016-12-10T09:18:00Z,28.4073,-96.7122,0.625,1111122 
TCOON,ioos:station:TCOON:031:1,2016-12-10T10:18:00Z,28.4073,-96.7122,0.629,1111122 
TCOON,ioos:station:TCOON:031:1,2016-12-10T11:18:00Z,28.4073,-96.7122,0.628,1111122 
TCOON,ioos:station:TCOON:031:1,2016-12-10T12:18:00Z,28.4073,-96.7122,0.642,1111122 
TCOON,ioos:station:TCOON:031:1,2016-12-10T13:18:00Z,28.4073,-96.7122,0.636,1111122 
TCOON,ioos:station:TCOON:031:1,2016-12-10T14:18:00Z,28.4073,-96.7122,0.644,1111122 
TCOON,ioos:station:TCOON:031:1,2016-12-10T15:18:00Z,28.4073,-96.7122,0.666,1111122 
TCOON,ioos:station:TCOON:031:1,2016-12-10T16:18:00Z,28.4073,-96.7122,0.649,1111122 
TCOON,ioos:station:TCOON:031:1,2016-12-10T17:18:00Z,28.4073,-96.7122,0.659,1111122 
TCOON,ioos:station:TCOON:031:1,2016-12-10T18:18:00Z,28.4073,-96.7122,0.658,1111122 
TCOON,ioos:station:TCOON:031:1,2016-12-10T19:18:00Z,28.4073,-96.7122,0.665,1111122 
TCOON,ioos:station:TCOON:031:1,2016-12-10T20:18:00Z,28.4073,-96.7122,0.663,1111122 
TCOON,ioos:station:TCOON:031:1,2016-12-10T21:18:00Z,28.4073,-96.7122,0.663,1111122 
TCOON,ioos:station:TCOON:031:1,2016-12-10T22:18:00Z,28.4073,-96.7122,0.674,1111122 
TCOON,ioos:station:TCOON:031:1,2016-12-10T23:18:00Z,28.4073,-96.7122,0.684,1111122 
TCOON,ioos:station:TCOON:031:1,2016-12-11T00:18:00Z,28.4073,-96.7122,0.689,1111122 
TCOON,ioos:station:TCOON:031:1,2016-12-11T01:18:00Z,28.4073,-96.7122,0.697,1111122 
TCOON,ioos:station:TCOON:031:1,2016-12-11T02:18:00Z,28.4073,-96.7122,0.703,1111122 
TCOON,ioos:station:TCOON:031:1,2016-12-11T03:18:00Z,28.4073,-96.7122,0.708,1111122 
TCOON,ioos:station:TCOON:031:1,2016-12-11T04:18:00Z,28.4073,-96.7122,0.721,1111122 
TCOON,ioos:station:TCOON:031:1,2016-12-11T05:18:00Z,28.4073,-96.7122,0.739,1111122 
TCOON,ioos:station:TCOON:031:1,2016-12-11T06:18:00Z,28.4073,-96.7122,0.734,1111122 
TCOON,ioos:station:TCOON:031:1,2016-12-11T07:18:00Z,28.4073,-96.7122,0.738,1111122 
TCOON,ioos:station:TCOON:031:1,2016-12-11T08:18:00Z,28.4073,-96.7122,0.751,1111122 
TCOON,ioos:station:TCOON:031:1,2016-12-11T09:18:00Z,28.4073,-96.7122,0.763,1111122 
TCOON,ioos:station:TCOON:031:1,2016-12-11T10:18:00Z,28.4073,-96.7122,0.754,1111122 
TCOON,ioos:station:TCOON:031:1,2016-12-11T11:18:00Z,28.4073,-96.7122,0.752,1111122 
TCOON,ioos:station:TCOON:031:1,2016-12-11T12:18:00Z,28.4073,-96.7122,0.752,1111122 
TCOON,ioos:station:TCOON:031:1,2016-12-11T13:18:00Z,28.4073,-96.7122,0.745,1111122 
TCOON,ioos:station:TCOON:031:1,2016-12-11T14:18:00Z,28.4073,-96.7122,0.735,1111122 
TCOON,ioos:station:TCOON:031:1,2016-12-11T15:18:00Z,28.4073,-96.7122,0.724,1111122 
TCOON,ioos:station:TCOON:031:1,2016-12-11T16:18:00Z,28.4073,-96.7122,0.724,1111122 
TCOON,ioos:station:TCOON:031:1,2016-12-11T17:18:00Z,28.4073,-96.7122,0.717,1111122 
TCOON,ioos:station:TCOON:031:1,2016-12-11T18:18:00Z,28.4073,-96.7122,0.709,1111122 
TCOON,ioos:station:TCOON:031:1,2016-12-11T19:18:00Z,28.4073,-96.7122,0.694,1111122 
TCOON,ioos:station:TCOON:031:1,2016-12-11T20:18:00Z,28.4073,-96.7122,0.713,1111122 
TCOON,ioos:station:TCOON:031:1,2016-12-11T21:18:00Z,28.4073,-96.7122,0.707,1111122 
TCOON,ioos:station:TCOON:031:1,2016-12-11T22:18:00Z,28.4073,-96.7122,0.71,1111122 
TCOON,ioos:station:TCOON:031:1,2016-12-11T23:18:00Z,28.4073,-96.7122,0.714,1111122 
TCOON,ioos:station:TCOON:031:1,2016-12-12T00:18:00Z,28.4073,-96.7122,0.718,1111122 
TCOON,ioos:station:TCOON:031:1,2016-12-12T01:18:00Z,28.4073,-96.7122,0.735,1111122 
TCOON,ioos:station:TCOON:031:1,2016-12-12T02:18:00Z,28.4073,-96.7122,0.741,1111122 
TCOON,ioos:station:TCOON:031:1,2016-12-12T03:18:00Z,28.4073,-96.7122,0.761,1111122 
TCOON,ioos:station:TCOON:031:1,2016-12-12T04:18:00Z,28.4073,-96.7122,0.765,1111122 
TCOON,ioos:station:TCOON:031:1,2016-12-12T05:18:00Z,28.4073,-96.7122,0.752,1111122 
TCOON,ioos:station:TCOON:031:1,2016-12-12T06:18:00Z,28.4073,-96.7122,0.756,1111122 
TCOON,ioos:station:TCOON:031:1,2016-12-12T07:18:00Z,28.4073,-96.7122,0.754,1111122 
TCOON,ioos:station:TCOON:031:1,2016-12-12T08:18:00Z,28.4073,-96.7122,0.76,1111122 
TCOON,ioos:station:TCOON:031:1,2016-12-12T09:18:00Z,28.4073,-96.7122,0.752,1111122 
TCOON,ioos:station:TCOON:031:1,2016-12-12T10:18:00Z,28.4073,-96.7122,0.747,1111122 
TCOON,ioos:station:TCOON:031:1,2016-12-12T11:18:00Z,28.4073,-96.7122,0.734,1111122 
TCOON,ioos:station:TCOON:031:1,2016-12-12T12:18:00Z,28.4073,-96.7122,0.721,1111122 
TCOON,ioos:station:TCOON:031:1,2016-12-12T13:18:00Z,28.4073,-96.7122,0.714,1111122 
TCOON,ioos:station:TCOON:031:1,2016-12-12T14:18:00Z,28.4073,-96.7122,0.701,1111122 
TCOON,ioos:station:TCOON:031:1,2016-12-12T15:24:00Z,28.4073,-96.7122,0.687,1111122 
TCOON,ioos:station:TCOON:031:1,2016-12-12T16:24:00Z,28.4073,-96.7122,0.676,1111122 
TCOON,ioos:station:TCOON:031:1,2016-12-12T17:24:00Z,28.4073,-96.7122,0.665,1111122 
TCOON,ioos:station:TCOON:031:1,2016-12-12T18:18:00Z,28.4073,-96.7122,0.649,1111122 
TCOON,ioos:station:TCOON:031:1,2016-12-12T19:18:00Z,28.4073,-96.7122,0.633,1111122 
TCOON,ioos:station:TCOON:031:1,2016-12-12T20:18:00Z,28.4073,-96.7122,0.63,1111122 
TCOON,ioos:station:TCOON:031:1,2016-12-12T21:18:00Z,28.4073,-96.7122,0.621,1111122 
TCOON,ioos:station:TCOON:031:1,2016-12-12T22:18:00Z,28.4073,-96.7122,0.61,1111122 
TCOON,ioos:station:TCOON:031:1,2016-12-12T23:18:00Z,28.4073,-96.7122,0.596,1111122 
TCOON,ioos:station:TCOON:031:1,2016-12-13T00:18:00Z,28.4073,-96.7122,0.59,1111122 
TCOON,ioos:station:TCOON:031:1,2016-12-13T01:18:00Z,28.4073,-96.7122,0.604,1111122 
TCOON,ioos:station:TCOON:031:1,2016-12-13T02:18:00Z,28.4073,-96.7122,0.608,1111122 